Regional Weather Roundup
Issued by NWS

Home | Current Version | Previous Version | Text Only | Print | Product List | Glossary Off
Versions: 1 2 3 4 5 6 7 8 9 10 11 12 13 14 15 16 17 18 19 20 21 22 23 24 25 26 27 28 29 30 31 32 33 34 35 36 37 38 39 40 41 42 43 44 45 46 47 48 49 50

000
ASUS45 KCYS 250310
RWRWY

WYOMING REGIONAL WEATHER ROUNDUP
NATIONAL WEATHER SERVICE CHEYENNE WY
900 PM MDT THU JUL 24 2014

NOTE:  "FAIR" INDICATES FEW OR NO CLOUDS BELOW 12,000 FEET
WITH NO SIGNIFICANT WEATHER AND/OR OBSTRUCTIONS TO VISIBILITY.

WYZ001-250400-
YELLOWSTONE NATIONAL PARK

CITY           SKY/WX    TMP DP  RH WIND       PRES   REMARKS
LK YELLOWSTONE   N/A     57  23  26 VRB6      30.26R
W YELLOWSTONE  NOT AVBL

$$
WYZ002>013-054>058-071-098>099-250400-
NORTHERN WYOMING

CITY           SKY/WX    TMP DP  RH WIND       PRES   REMARKS
JACKSON        NOT AVBL
CODY           NOT AVBL
GREYBULL       CLEAR     88  10   5 NW20      29.83R
WORLAND        CLEAR     80  30  16 CALM      29.86R
SHERIDAN       CLEAR     76  50  40 N10       29.89R
BUFFALO        CLEAR     82  27  13 N13       29.92R
GILLETTE       CLEAR     78  41  26 NW10      29.82R
HULETT         FAIR      77  61  57 MISG      29.80
NEWCASTLE      FAIR      82  30  15 NW5       29.78

$$
WYZ014>020-022>026-101>103-250400-
CENTRAL WYOMING

CITY           SKY/WX    TMP DP  RH WIND       PRES   REMARKS
BIG PINEY      CLEAR     67  21  17 NW12      30.20R
PINEDALE       CLEAR     64  34  32 NW9       30.21R
DUBOIS         FAIR      68  19  15 W23G30    30.17R
LANDER         CLEAR     80  31  16 SW7       29.98R
RIVERTON       CLEAR     82  20  10 W20       29.99R
CASPER         PTCLDY    81  29  15 W10       29.94R
DOUGLAS        CLEAR     80  45  28 S5        29.90S

$$
WYZ021-027>030-104>119-250400-
SOUTHERN WYOMING

CITY           SKY/WX    TMP DP  RH WIND       PRES   REMARKS
EVANSTON       PTCLDY    71  31  22 NW9       30.19S
KEMMERER       CLEAR     68  32  26 N10       30.22R
FORT BRIDGER   FAIR      75  25  15 NW5       30.22R
ROCK SPRINGS   CLEAR     77  27  15 NW13      30.14R
DIXON          FAIR      77  44  30 S10       30.17R
RAWLINS        PTCLDY    81  35  19 SW16      30.14R
SARATOGA       FAIR      73  36  25 SW10      30.17R
LARAMIE        MOCLDY    72  47  40 SW15      30.18R
CHEYENNE       MOCLDY    78  48  34 SW10G20   30.09S
TORRINGTON     CLEAR     83  51  33 SE3       29.85S
PINE BLUFFS    FAIR      73  52  46 S7        30.03R

$$


USA.gov is the U.S. government's official web portal to all federal, state and local government web resources and services.